Change the Weather History Date:

Thursday, February 28, 2013

  Actual Average (PAGA) Record (PAGA)
Temperature  
Mean Temperature 4 °F -  
Max Temperature 17 °F 9 °F 37 °F (1952)
Min Temperature -8 °F -9 °F -48 °F (1956)
Degree Days  
Heating Degree Days 60    
Moisture  
Dew Point 2 °F    
Average Humidity 77    
Maximum Humidity 85    
Minimum Humidity 61    
Precipitation  
Precipitation 0.01 in - - ()
Sea Level Pressure  
Sea Level Pressure 29.58 in    
Wind  
Wind Speed 2 mph (SW)    
Max Wind Speed 9 mph    
Max Gust Speed -    
Visibility 7 miles    
Events Snow    
Averages and records for this station are not official NWS values.
T = Trace of Precipitation, MM = Missing Value Source: NWS Daily Summary

Daily Weather History Graph

Daily Weather History Graph

Search for Another Location

Airport or City:

Trip Planner

Search our weather history database for the weather conditions in past years. The results will help you decide how hot, cold, wet, or windy it might be!

Date:

Astronomy

Feb. 28, 2013 Rise Set
Actual Time 8:44 AM AKST 6:51 PM AKST
Civil Twilight 7:56 AM AKST 7:40 PM AKST
Nautical Twilight 7:00 AM AKST 8:35 PM AKST
Astronomical Twilight 6:03 AM AKST 9:33 PM AKST
Moon No Moon Rise 8:37 AM AKST (2/28)
Length of Visible Light 11h 43m
Length of Day
10h 06m
Waning Gibbous, 90% of the Moon is Illuminated
Feb 28
Waning Gibbous
Mar 4
Last Quarter
Mar 11
New
Mar 19
First Quarter
Mar 27
Full

Hourly Weather History & Observations

Time (AKST) Temp. Windchill Dew Point Humidity Pressure Visibility Wind Dir Wind Speed Gust Speed Precip Events Conditions
12:53 AM 6.1 °F -0.9 °F 1.9 °F 83% 29.43 in 10.0 mi SW 3.5 mph - N/A   Clear
1:53 AM -0.0 °F -7.9 °F -4.0 °F 83% 29.44 in 10.0 mi SW 3.5 mph - N/A   Scattered Clouds
3:53 AM -2.0 °F - -6.0 °F 83% 29.45 in 10.0 mi Calm Calm - N/A   Clear
4:53 AM -8.0 °F -16.9 °F -13.0 °F 79% 29.45 in 10.0 mi SW 3.5 mph - N/A   Clear
5:53 AM -8.0 °F -19.2 °F -14.1 °F 75% 29.47 in 10.0 mi SW 4.6 mph - N/A   Clear
6:53 AM -8.0 °F -16.9 °F -13.0 °F 79% 29.48 in 10.0 mi SW 3.5 mph - N/A   Clear
7:53 AM -7.1 °F -15.9 °F -14.1 °F 72% 29.49 in 10.0 mi SW 3.5 mph - N/A   Scattered Clouds
8:53 AM -7.1 °F -15.9 °F -11.9 °F 79% 29.50 in 10.0 mi SW 3.5 mph - N/A   Overcast
9:53 AM -2.0 °F - -7.1 °F 79% 29.52 in 10.0 mi Calm Calm - N/A   Overcast
10:53 AM 1.9 °F - -2.0 °F 83% 29.53 in 10.0 mi Calm Calm - N/A   Overcast
11:53 AM 8.1 °F - 1.9 °F 76% 29.54 in 10.0 mi Calm Calm - N/A   Overcast
12:53 PM 10.0 °F - 1.9 °F 70% 29.55 in 10.0 mi Calm Calm - N/A   Overcast
1:53 PM 12.0 °F - 3.0 °F 67% 29.55 in 10.0 mi Calm Calm - N/A   Overcast
2:53 PM 15.1 °F - 3.9 °F 61% 29.55 in 10.0 mi Calm Calm - N/A   Overcast
3:53 PM 15.1 °F - 6.1 °F 68% 29.56 in 10.0 mi Calm Calm - N/A   Overcast
4:53 PM 17.1 °F - 6.1 °F 62% 29.58 in 10.0 mi Calm Calm - N/A   Overcast
5:53 PM 15.1 °F - 6.1 °F 68% 29.59 in 10.0 mi Calm Calm - N/A   Overcast
6:53 PM 17.1 °F 10.0 °F 9.0 °F 71% 29.61 in 10.0 mi SW 4.6 mph - N/A   Overcast
7:53 PM 15.1 °F 9.4 °F 9.0 °F 77% 29.63 in 6.0 mi SW 3.5 mph - 0.00 in Snow Light Snow
8:11 PM 15.8 °F - 8.6 °F 73% 29.62 in 2.0 mi Calm Calm - 0.00 in Snow Light Snow
8:27 PM 14.0 °F - 8.6 °F 79% 29.63 in 1.8 mi Calm Calm - 0.00 in Snow Light Snow
8:43 PM 14.0 °F - 8.6 °F 79% 29.63 in 2.5 mi Calm Calm - 0.00 in Snow Light Snow
8:53 PM 14.0 °F - 9.0 °F 80% 29.66 in 2.0 mi Calm Calm - 0.00 in Snow Light Snow
9:03 PM 14.0 °F - 8.6 °F 79% 29.64 in 1.5 mi Calm Calm - 0.00 in Snow Light Snow
9:28 PM 14.0 °F - 8.6 °F 79% 29.65 in 2.0 mi Calm Calm - 0.00 in Snow Light Snow
9:53 PM 12.9 °F - 9.0 °F 84% 29.68 in 1.8 mi Calm Calm - 0.00 in Snow Light Snow
10:00 PM 12.2 °F - 8.6 °F 85% 29.67 in 2.0 mi Calm Calm - 0.00 in Snow Light Snow
10:11 PM 12.2 °F - 8.6 °F 85% 29.67 in 3.0 mi Calm Calm - 0.01 in Snow Light Snow
10:53 PM 12.9 °F 2.6 °F 8.1 °F 81% 29.70 in 3.0 mi SW 6.9 mph - 0.01 in Snow Light Snow
11:03 PM 12.2 °F 1.7 °F 8.6 °F 85% 29.68 in 2.5 mi SW 6.9 mph - 0.00 in Snow Light Snow
11:16 PM 12.2 °F -0.2 °F 6.8 °F 79% 29.69 in 2.5 mi SW 9.2 mph - 0.00 in Snow Light Snow
11:23 PM 12.2 °F 1.7 °F 6.8 °F 79% 29.69 in 3.0 mi SW 6.9 mph - 0.00 in Snow Light Snow
11:53 PM 10.9 °F -0.8 °F 6.1 °F 81% 29.72 in 4.0 mi SW 8.1 mph - 0.00 in Snow Light Snow